Tracking 29528 objects as of 15-Sep-2024
HD Live streaming from Space Station
objects crossing your sky now

ARIANE 5 DEB (SYLDA)

Track ARIANE 5 DEB (SYLDA) now!
10-day predictions


NORAD ID: 45247
Int'l Code: 2020-013C
Perigee: 249.1 km
Apogee: 27,311.7 km
Inclination: 5.7 °
Period: 474.5 minutes
Semi major axis: 20151 km
RCS: Unknown
Launch date: February 18, 2020
Source: France (FR)
Launch site: FRENCH GUIANA (FRGUI)

Note: This is SATELLITE DEBRIS
Your satellite tracking list
Your tracking list is empty




NASA's NSSDC Master Catalog

Two Line Element Set (TLE):
1 45247U 20013C   24258.90322870  .00116780  00000-0  17583-1 0  9998
2 45247   5.7394 244.9713 6714827 291.0947  12.2676  3.03490393 42261
Source of the keplerian elements: AFSPC